| time (UTC) | temp F | wind direction | speed MPH | gust MPH | rain 1hr in | rain 24hr in | rain mn in | humidity % | barometer mb |
| 20260507230040 | 49 | 135 | 0.0 | 0.0 | 0.00 | 1.04 | 1.04 | 98 | 1002.3 |
| 20260507224547 | 49 | 135 | 0.0 | 0.0 | 0.00 | 1.04 | 1.04 | 98 | 1002.4 |
| 20260507223034 | 49 | 115 | 0.0 | 2.0 | 0.00 | 1.04 | 1.04 | 98 | 1002.4 |
| 20260507221533 | 50 | 123 | 0.0 | 2.0 | 0.00 | 1.04 | 1.04 | 98 | 1002.5 |
| 20260507220031 | 50 | 92 | 0.0 | 1.0 | 0.00 | 1.04 | 1.04 | 98 | 1002.7 |
| 20260507214530 | 50 | 104 | 0.0 | 0.0 | 0.00 | 1.04 | 1.04 | 98 | 1002.8 |
| 20260507213030 | 50 | 84 | 0.0 | 2.0 | 0.00 | 1.04 | 1.04 | 98 | 1003.0 |
| 20260507211528 | 50 | 116 | 0.0 | 0.0 | 0.02 | 1.04 | 1.04 | 98 | 1002.6 |
| 20260507210031 | 50 | 215 | 0.0 | 1.0 | 0.02 | 1.04 | 1.04 | 98 | 1002.8 |
| 20260507204527 | 50 | 206 | 0.0 | 3.0 | 0.06 | 1.04 | 1.04 | 98 | 1002.3 |
| 20260507203025 | 50 | 241 | 0.0 | 3.0 | 0.12 | 1.04 | 1.04 | 98 | 1002.5 |
| 20260507201527 | 50 | 202 | 0.0 | 2.0 | 0.19 | 1.02 | 1.02 | 98 | 1002.7 |
| 20260507200022 | 50 | 240 | 0.0 | 1.0 | 0.26 | 1.02 | 1.02 | 98 | 1003.3 |
| 20260507194524 | 50 | 111 | 0.0 | 3.0 | 0.28 | 0.98 | 0.98 | 98 | 1002.9 |
| 20260507193020 | 50 | 149 | 0.0 | 2.0 | 0.32 | 0.92 | 0.92 | 98 | 1004.0 |
| 20260507191519 | 51 | 121 | 0.0 | 0.0 | 0.33 | 0.83 | 0.83 | 98 | 1004.6 |
| 20260507190020 | 51 | 136 | 0.0 | 0.0 | 0.33 | 0.76 | 0.76 | 98 | 1004.6 |
| 20260507184519 | 50 | 136 | 0.0 | 0.0 | 0.45 | 0.69 | 0.69 | 98 | 1004.5 |
| 20260507183015 | 50 | 136 | 0.0 | 1.0 | 0.46 | 0.60 | 0.60 | 98 | 1004.8 |
| 20260507181514 | 49 | 157 | 0.0 | 2.0 | 0.41 | 0.50 | 0.50 | 98 | 1005.1 |
| 20260507180015 | 49 | 109 | 0.0 | 2.0 | 0.35 | 0.42 | 0.42 | 97 | 1005.4 |
| 20260507174512 | 50 | 118 | 0.0 | 7.0 | 0.18 | 0.24 | 0.24 | 97 | 1005.5 |
| 20260507173011 | 50 | 208 | 0.0 | 5.0 | 0.08 | 0.13 | 0.13 | 97 | 1004.7 |
| 20260507171510 | 50 | 122 | 2.0 | 7.0 | 0.04 | 0.09 | 0.09 | 97 | 1004.9 |
| 20260507170008 | 50 | 186 | 1.0 | 7.0 | 0.02 | 0.06 | 0.06 | 97 | 1005.2 |
| 20260507164506 | 50 | 194 | 0.0 | 4.0 | 0.01 | 0.06 | 0.06 | 97 | 1005.5 |
| 20260507163002 | 50 | 201 | 0.0 | 4.0 | 0.01 | 0.06 | 0.06 | 97 | 1006.2 |
| 20260507161603 | 50 | 155 | 0.0 | 4.0 | 0.01 | 0.06 | 0.06 | 97 | 1006.6 |
| 20260507160108 | 50 | 139 | 0.0 | 5.0 | 0.00 | 0.05 | 0.05 | 97 | 1007.2 |
| 20260507154556 | 50 | 271 | 0.0 | 4.0 | 0.00 | 0.05 | 0.05 | 96 | 1007.3 |
| 20260507153059 | 51 | 133 | 0.0 | 4.0 | 0.00 | 0.05 | 0.05 | 97 | 1007.6 |
| 20260507151552 | 51 | 156 | 0.0 | 10.0 | 0.00 | 0.05 | 0.05 | 97 | 1008.0 |
| 20260507150051 | 51 | 190 | 0.0 | 3.0 | 0.00 | 0.05 | 0.05 | 97 | 1008.4 |
| 20260507144549 | 52 | 158 | 0.0 | 5.0 | 0.00 | 0.05 | 0.05 | 97 | 1008.5 |
| 20260507143048 | 52 | 200 | 1.0 | 8.0 | 0.00 | 0.05 | 0.05 | 97 | 1008.6 |
| 20260507141544 | 52 | 126 | 1.0 | 8.0 | 0.00 | 0.05 | 0.05 | 97 | 1009.1 |
| 20260507140059 | 53 | 193 | 1.0 | 8.0 | 0.00 | 0.05 | 0.05 | 98 | 1009.3 |
| 20260507134541 | 53 | 184 | 2.0 | 9.0 | 0.00 | 0.05 | 0.05 | 98 | 1009.4 |
| 20260507133039 | 52 | 154 | 1.0 | 7.0 | 0.00 | 0.05 | 0.05 | 98 | 1009.2 |
| 20260507131542 | 52 | 215 | 0.0 | 8.0 | 0.00 | 0.05 | 0.05 | 98 | 1009.6 |
| 20260507130034 | 51 | 148 | 0.0 | 8.0 | 0.00 | 0.05 | 0.05 | 98 | 1009.8 |
| 20260507124534 | 51 | 164 | 2.0 | 8.0 | 0.00 | 0.05 | 0.05 | 98 | 1010.0 |
| 20260507123031 | 51 | 198 | 0.0 | 4.0 | 0.00 | 0.05 | 0.05 | 98 | 1009.8 |
| 20260507121529 | 51 | 225 | 0.0 | 6.0 | 0.00 | 0.05 | 0.05 | 98 | 1010.1 |
| 20260507120026 | 51 | 176 | 1.0 | 6.0 | 0.01 | 0.05 | 0.05 | 98 | 1010.2 |
| 20260507114524 | 50 | 200 | 0.0 | 6.0 | 0.01 | 0.05 | 0.05 | 98 | 1010.6 |
| 20260507113023 | 50 | 186 | 0.0 | 3.0 | 0.02 | 0.05 | 0.05 | 97 | 1010.9 |
| 20260507111521 | 50 | 160 | 0.0 | 4.0 | 0.02 | 0.05 | 0.05 | 98 | 1011.2 |
| 20260507110021 | 51 | 145 | 2.0 | 8.0 | 0.03 | 0.04 | 0.04 | 98 | 1011.3 |
| 20260507104526 | 51 | 200 | 1.0 | 7.0 | 0.04 | 0.04 | 0.04 | 98 | 1010.9 |
| 20260507103023 | 51 | 228 | 1.0 | 4.0 | 0.03 | 0.03 | 0.03 | 98 | 1011.2 |
| 20260507101531 | 50 | 189 | 0.0 | 3.0 | 0.03 | 0.03 | 0.03 | 98 | 1011.4 |
| 20260507100026 | 50 | 199 | 0.0 | 3.0 | 0.01 | 0.01 | 0.01 | 98 | 1011.7 |
| 20260507094514 | 49 | 212 | 2.0 | 5.0 | 0.00 | 0.00 | 0.00 | 97 | 1011.9 |
| 20260507093015 | 49 | 229 | 0.0 | 3.0 | 0.00 | 0.00 | 0.00 | 97 | 1011.7 |
| 20260507091530 | 49 | 50 | 0.0 | 6.0 | 0.00 | 0.00 | 0.00 | 97 | 1011.9 |
| 20260507090010 | 49 | 225 | 1.0 | 5.0 | 0.00 | 0.00 | 0.00 | 97 | 1012.2 |
| 20260507084509 | 49 | 176 | 0.0 | 8.0 | 0.00 | 0.00 | 0.00 | 97 | 1012.2 |
| 20260507083011 | 49 | 227 | 0.0 | 2.0 | 0.00 | 0.00 | 0.00 | 97 | 1012.2 |
| 20260507081507 | 49 | 212 | 1.0 | 7.0 | 0.00 | 0.00 | 0.00 | 97 | 1012.0 |
| 20260507080007 | 49 | 226 | 0.0 | 3.0 | 0.00 | 0.00 | 0.00 | 97 | 1011.9 |
| 20260507074508 | 49 | 226 | 0.0 | 1.0 | 0.00 | 0.00 | 0.00 | 97 | 1012.5 |
| 20260507073002 | 49 | 234 | 0.0 | 3.0 | 0.00 | 0.00 | 0.00 | 97 | 1012.8 |
| 20260507071601 | 49 | 223 | 0.0 | 4.0 | 0.00 | 0.00 | 0.00 | 96 | 1013.1 |
| 20260507070137 | 49 | 253 | 0.0 | 3.0 | 0.00 | 0.00 | 0.00 | 96 | 1013.3 |
| 20260507064555 | 49 | 229 | 0.0 | 3.0 | 0.00 | 0.00 | 0.00 | 96 | 1013.3 |
| 20260507063057 | 49 | 244 | 0.0 | 7.0 | 0.00 | 0.00 | 0.00 | 96 | 1013.9 |
| 20260507061551 | 49 | 200 | 0.0 | 1.0 | 0.00 | 0.00 | 0.00 | 96 | 1013.3 |
| 20260507060048 | 49 | 200 | 0.0 | 3.0 | 0.00 | 0.00 | 0.00 | 96 | 1014.0 |
| 20260507054551 | 50 | 190 | 0.0 | 1.0 | 0.00 | 0.00 | 0.00 | 95 | 1014.2 |
| 20260507053045 | 50 | 192 | 0.0 | 1.0 | 0.00 | 0.00 | 0.00 | 95 | 1014.6 |
| 20260507051542 | 50 | 219 | 0.0 | 2.0 | 0.00 | 0.00 | 0.00 | 95 | 1014.9 |
| 20260507050038 | 50 | 153 | 0.0 | 0.0 | 0.00 | 0.00 | 0.00 | 95 | 1015.4 |
| 20260507044544 | 50 | 87 | 0.0 | 3.0 | 0.00 | 0.00 | 0.00 | 95 | 1015.9 |
| 20260507043038 | 50 | 129 | 0.0 | 1.0 | 0.00 | 0.00 | 0.00 | 94 | 1016.2 |
| 20260507041531 | 50 | 142 | 0.0 | 2.0 | 0.00 | 0.00 | 0.00 | 94 | 1016.4 |
| 20260507040030 | 51 | 203 | 0.0 | 0.0 | 0.00 | 0.00 | 0.00 | 94 | 1017.0 |
| 20260507034627 | 51 | 208 | 0.0 | 1.0 | 0.00 | 0.00 | 0.00 | 94 | 1017.1 |
| 20260507033026 | 51 | 85 | 0.0 | 1.0 | 0.00 | 0.00 | 0.00 | 94 | 1017.4 |
| 20260507031521 | 50 | 209 | 0.0 | 0.0 | 0.00 | 0.00 | 0.00 | 94 | 1017.5 |
| 20260507030018 | 49 | 210 | 0.0 | 0.0 | 0.00 | 0.00 | 0.00 | 93 | 1017.7 |
| 20260507024518 | 50 | 210 | 0.0 | 0.0 | 0.00 | 0.00 | 0.00 | 92 | 1017.8 |
| 20260507023018 | 50 | 210 | 0.0 | 0.0 | 0.00 | 0.00 | 0.00 | 92 | 1017.8 |
| 20260507021517 | 51 | 209 | 0.0 | 2.0 | 0.00 | 0.00 | 0.00 | 92 | 1018.0 |
| 20260507020017 | 51 | 191 | 0.0 | 1.0 | 0.00 | 0.00 | 0.00 | 91 | 1018.2 |
| 20260507014516 | 51 | 162 | 0.0 | 3.0 | 0.00 | 0.00 | 0.00 | 91 | 1018.2 |
| 20260507013016 | 51 | 124 | 0.0 | 0.0 | 0.00 | 0.00 | 0.00 | 90 | 1018.3 |
| 20260507011515 | 52 | 99 | 0.0 | 4.0 | 0.00 | 0.00 | 0.00 | 89 | 1018.3 |
| 20260507010014 | 52 | 163 | 0.0 | 6.0 | 0.00 | 0.00 | 0.00 | 88 | 1018.5 |
| 20260507004514 | 53 | 116 | 0.0 | 3.0 | 0.00 | 0.00 | 0.00 | 88 | 1018.4 |
| 20260507003014 | 53 | 173 | 0.0 | 7.0 | 0.00 | 0.00 | 0.00 | 87 | 1018.4 |
| 20260507001515 | 53 | 125 | 1.0 | 4.0 | 0.00 | 0.00 | 0.00 | 86 | 1018.5 |
| 20260507000012 | 54 | 175 | 1.0 | 7.0 | 0.00 | 0.00 | 0.00 | 86 | 1018.5 |
| 20260506234514 | 54 | 167 | 1.0 | 5.0 | 0.00 | 0.00 | 0.00 | 85 | 1018.4 |
| 20260506233010 | 54 | 145 | 1.0 | 5.0 | 0.00 | 0.00 | 0.00 | 84 | 1018.3 |